Time,TemperatureF,DewpointF,PressureIn,WindDirection,WindDirectionDegrees,WindSpeedMPH,WindSpeedGustMPH,Humidity,HourlyPrecipIn,Conditions,Clouds,dailyrainin,SoftwareType,DateUTC
2013-06-30 00:00:00,68.8,54.0,29.10,WSW,247,0.0,-999.0,59,0.00,,,0.00,Rainwise IP-100,2013-06-30 07:00:00,
2013-06-30 00:05:00,68.7,53.5,29.10,WSW,247,0.0,-999.0,59,0.00,,,0.00,Rainwise IP-100,2013-06-30 07:05:00,
2013-06-30 00:10:00,68.5,53.5,29.11,WSW,247,0.0,-999.0,58,0.00,,,0.00,Rainwise IP-100,2013-06-30 07:10:00,
2013-06-30 00:15:00,68.1,53.5,29.11,WSW,247,0.0,-999.0,59,0.00,,,0.00,Rainwise IP-100,2013-06-30 07:15:00,
2013-06-30 00:20:00,67.5,53.5,29.11,WSW,247,1.4,-999.0,60,0.00,,,0.00,Rainwise IP-100,2013-06-30 07:20:00,
2013-06-30 00:25:00,67.2,53.5,29.11,WSW,247,0.0,-999.0,61,0.00,,,0.00,Rainwise IP-100,2013-06-30 07:25:00,
2013-06-30 00:30:00,67.0,54.0,29.10,WSW,247,1.9,-999.0,62,0.00,,,0.00,Rainwise IP-100,2013-06-30 07:30:00,
2013-06-30 00:35:00,67.0,54.0,29.10,WSW,247,0.0,-999.0,63,0.00,,,0.00,Rainwise IP-100,2013-06-30 07:35:00,
2013-06-30 00:40:00,67.0,54.0,29.11,WSW,247,0.0,-999.0,63,0.00,,,0.00,Rainwise IP-100,2013-06-30 07:40:00,
2013-06-30 00:45:00,67.0,54.0,29.10,WSW,247,0.0,-999.0,63,0.00,,,0.00,Rainwise IP-100,2013-06-30 07:45:00,
2013-06-30 00:50:00,66.9,54.0,29.10,WSW,247,1.2,-999.0,63,0.00,,,0.00,Rainwise IP-100,2013-06-30 07:50:00,
2013-06-30 00:55:00,66.7,54.0,29.11,WSW,247,0.0,-999.0,63,0.00,,,0.00,Rainwise IP-100,2013-06-30 07:55:00,
2013-06-30 01:00:00,66.6,54.0,29.10,WSW,247,0.0,-999.0,64,0.00,,,0.00,Rainwise IP-100,2013-06-30 08:00:00,
2013-06-30 01:05:00,66.5,54.5,29.10,WSW,247,0.0,-999.0,65,0.00,,,0.00,Rainwise IP-100,2013-06-30 08:05:00,
2013-06-30 01:10:00,66.2,54.0,29.10,WSW,247,1.2,-999.0,65,0.00,,,0.00,Rainwise IP-100,2013-06-30 08:10:00,
2013-06-30 01:15:00,66.0,54.0,29.10,WSW,247,1.9,-999.0,65,0.00,,,0.00,Rainwise IP-100,2013-06-30 08:15:00,
2013-06-30 01:20:00,65.8,54.0,29.10,WSW,247,0.0,-999.0,65,0.00,,,0.00,Rainwise IP-100,2013-06-30 08:20:00,
2013-06-30 01:25:00,65.7,53.5,29.10,WSW,247,1.4,-999.0,65,0.00,,,0.00,Rainwise IP-100,2013-06-30 08:25:00,
2013-06-30 01:30:00,65.5,53.5,29.09,WSW,247,1.6,-999.0,65,0.00,,,0.00,Rainwise IP-100,2013-06-30 08:30:00,
2013-06-30 01:35:00,65.5,53.5,29.10,WSW,247,1.4,-999.0,65,0.00,,,0.00,Rainwise IP-100,2013-06-30 08:35:00,
2013-06-30 01:40:00,65.5,53.5,29.10,WSW,247,0.0,-999.0,65,0.00,,,0.00,Rainwise IP-100,2013-06-30 08:40:00,
2013-06-30 01:45:00,65.1,53.0,29.09,WSW,247,0.0,-999.0,65,0.00,,,0.00,Rainwise IP-100,2013-06-30 08:45:00,
2013-06-30 01:50:00,64.7,53.0,29.09,WSW,247,0.0,-999.0,66,0.00,,,0.00,Rainwise IP-100,2013-06-30 08:50:00,
2013-06-30 01:55:00,64.4,53.5,29.09,WSW,247,0.0,-999.0,67,0.00,,,0.00,Rainwise IP-100,2013-06-30 08:55:00,
2013-06-30 02:00:00,64.1,53.5,29.09,WSW,247,2.1,-999.0,68,0.00,,,0.00,Rainwise IP-100,2013-06-30 09:00:00,
2013-06-30 02:05:00,64.0,53.5,29.09,WSW,247,1.4,-999.0,69,0.00,,,0.00,Rainwise IP-100,2013-06-30 09:05:00,
2013-06-30 02:10:00,64.0,54.0,29.09,WSW,247,0.0,-999.0,70,0.00,,,0.00,Rainwise IP-100,2013-06-30 09:10:00,
2013-06-30 02:15:00,64.0,54.0,29.09,WSW,247,0.0,-999.0,70,0.00,,,0.00,Rainwise IP-100,2013-06-30 09:15:00,
2013-06-30 02:20:00,63.7,53.5,29.09,WSW,247,1.2,-999.0,70,0.00,,,0.00,Rainwise IP-100,2013-06-30 09:20:00,
2013-06-30 02:25:00,63.5,53.5,29.09,WSW,247,0.0,-999.0,70,0.00,,,0.00,Rainwise IP-100,2013-06-30 09:25:00,
2013-06-30 02:30:00,63.5,54.0,29.09,WSW,247,0.0,-999.0,71,0.00,,,0.00,Rainwise IP-100,2013-06-30 09:30:00,
2013-06-30 02:35:00,63.5,54.0,29.09,WSW,247,0.0,-999.0,71,0.00,,,0.00,Rainwise IP-100,2013-06-30 09:35:00,
2013-06-30 02:40:00,63.4,54.0,29.09,WSW,247,0.0,-999.0,71,0.00,,,0.00,Rainwise IP-100,2013-06-30 09:40:00,
2013-06-30 02:45:00,63.0,54.0,29.09,WSW,247,0.0,-999.0,73,0.00,,,0.00,Rainwise IP-100,2013-06-30 09:45:00,
2013-06-30 02:50:00,62.7,54.0,29.09,WSW,247,0.0,-999.0,73,0.00,,,0.00,Rainwise IP-100,2013-06-30 09:50:00,
2013-06-30 02:55:00,62.5,54.0,29.09,WSW,247,1.2,-999.0,74,0.00,,,0.00,Rainwise IP-100,2013-06-30 09:55:00,
2013-06-30 03:00:00,62.4,54.0,29.09,WSW,247,1.4,-999.0,74,0.00,,,0.00,Rainwise IP-100,2013-06-30 10:00:00,
2013-06-30 03:04:00,62.5,54.0,29.09,WSW,247,0.0,-999.0,73,0.00,,,0.00,Rainwise IP-100,2013-06-30 10:04:00,
2013-06-30 03:09:00,62.5,54.0,29.09,WSW,247,1.6,-999.0,73,0.00,,,0.00,Rainwise IP-100,2013-06-30 10:09:00,
2013-06-30 03:14:00,62.6,54.0,29.09,WSW,247,0.0,-999.0,73,0.00,,,0.00,Rainwise IP-100,2013-06-30 10:14:00,
2013-06-30 03:19:00,62.7,54.0,29.09,WSW,247,0.0,-999.0,73,0.00,,,0.00,Rainwise IP-100,2013-06-30 10:19:00,
2013-06-30 03:24:00,62.6,54.0,29.09,WSW,247,0.0,-999.0,73,0.00,,,0.00,Rainwise IP-100,2013-06-30 10:24:00,
2013-06-30 03:29:00,62.4,54.0,29.09,WSW,247,0.0,-999.0,74,0.00,,,0.00,Rainwise IP-100,2013-06-30 10:29:00,
2013-06-30 03:34:00,62.4,54.5,29.09,WSW,247,0.0,-999.0,75,0.00,,,0.00,Rainwise IP-100,2013-06-30 10:34:00,
2013-06-30 03:39:00,62.4,54.5,29.09,WSW,247,0.0,-999.0,75,0.00,,,0.00,Rainwise IP-100,2013-06-30 10:39:00,
2013-06-30 03:44:00,62.1,54.0,29.09,WSW,247,0.0,-999.0,75,0.00,,,0.00,Rainwise IP-100,2013-06-30 10:44:00,
2013-06-30 03:49:00,61.7,53.5,29.09,WSW,247,0.0,-999.0,75,0.00,,,0.00,Rainwise IP-100,2013-06-30 10:49:00,
2013-06-30 03:54:00,61.4,53.5,29.09,WSW,247,0.0,-999.0,75,0.00,,,0.00,Rainwise IP-100,2013-06-30 10:54:00,
2013-06-30 03:59:00,61.4,53.5,29.09,WSW,247,0.0,-999.0,75,0.00,,,0.00,Rainwise IP-100,2013-06-30 10:59:00,
2013-06-30 04:04:00,61.4,53.5,29.08,WSW,247,1.6,-999.0,75,0.00,,,0.00,Rainwise IP-100,2013-06-30 11:04:00,
2013-06-30 04:09:00,61.5,54.0,29.09,WSW,247,0.0,-999.0,76,0.00,,,0.00,Rainwise IP-100,2013-06-30 11:09:00,
2013-06-30 04:14:00,61.6,54.0,29.08,WSW,247,0.0,-999.0,76,0.00,,,0.00,Rainwise IP-100,2013-06-30 11:14:00,
2013-06-30 04:19:00,61.7,54.0,29.09,WSW,247,1.2,-999.0,77,0.00,,,0.00,Rainwise IP-100,2013-06-30 11:19:00,
2013-06-30 04:24:00,61.8,54.5,29.08,WSW,247,0.0,-999.0,77,0.00,,,0.00,Rainwise IP-100,2013-06-30 11:24:00,
2013-06-30 04:29:00,62.1,54.0,29.08,WSW,247,0.0,-999.0,75,0.00,,,0.00,Rainwise IP-100,2013-06-30 11:29:00,
2013-06-30 04:34:00,62.2,53.5,29.08,WSW,247,0.0,-999.0,74,0.00,,,0.00,Rainwise IP-100,2013-06-30 11:34:00,
2013-06-30 04:39:00,61.7,53.5,29.08,WSW,247,1.4,-999.0,75,0.00,,,0.00,Rainwise IP-100,2013-06-30 11:39:00,
2013-06-30 04:44:00,61.3,54.0,29.08,WSW,247,0.0,-999.0,76,0.00,,,0.00,Rainwise IP-100,2013-06-30 11:44:00,
2013-06-30 04:49:00,61.2,54.0,29.09,ENE,67,0.0,-999.0,77,0.00,,,0.00,Rainwise IP-100,2013-06-30 11:49:00,
2013-06-30 04:54:00,61.1,54.5,29.08,ENE,67,0.0,-999.0,79,0.00,,,0.00,Rainwise IP-100,2013-06-30 11:54:00,
2013-06-30 04:59:00,61.0,54.5,29.09,ENE,67,0.0,-999.0,80,0.00,,,0.00,Rainwise IP-100,2013-06-30 11:59:00,
2013-06-30 05:04:00,60.7,54.0,29.09,ENE,67,0.0,-999.0,80,0.00,,,0.00,Rainwise IP-100,2013-06-30 12:04:00,
2013-06-30 05:09:00,60.7,54.0,29.09,ENE,67,0.0,-999.0,80,0.00,,,0.00,Rainwise IP-100,2013-06-30 12:09:00,
2013-06-30 05:14:00,60.7,54.0,29.09,ENE,67,0.0,-999.0,80,0.00,,,0.00,Rainwise IP-100,2013-06-30 12:14:00,
2013-06-30 05:19:00,60.4,54.0,29.08,ENE,67,0.0,-999.0,80,0.00,,,0.00,Rainwise IP-100,2013-06-30 12:19:00,
2013-06-30 05:24:00,60.1,54.0,29.09,WSW,247,0.0,-999.0,80,0.00,,,0.00,Rainwise IP-100,2013-06-30 12:24:00,
2013-06-30 05:29:00,60.1,54.0,29.09,WSW,247,0.0,-999.0,81,0.00,,,0.00,Rainwise IP-100,2013-06-30 12:29:00,
2013-06-30 05:34:00,60.0,54.0,29.09,WSW,247,0.0,-999.0,80,0.00,,,0.00,Rainwise IP-100,2013-06-30 12:34:00,
2013-06-30 05:39:00,59.8,54.0,29.09,WSW,247,0.0,-999.0,81,0.00,,,0.00,Rainwise IP-100,2013-06-30 12:39:00,
2013-06-30 05:44:00,59.6,54.0,29.09,WSW,247,0.0,-999.0,82,0.00,,,0.00,Rainwise IP-100,2013-06-30 12:44:00,
2013-06-30 05:49:00,59.5,54.0,29.09,WSW,247,0.0,-999.0,82,0.00,,,0.00,Rainwise IP-100,2013-06-30 12:49:00,
2013-06-30 05:54:00,59.6,54.0,29.09,WSW,247,1.2,-999.0,82,0.00,,,0.00,Rainwise IP-100,2013-06-30 12:54:00,
2013-06-30 05:59:00,60.0,54.5,29.09,WSW,247,0.0,-999.0,82,0.00,,,0.00,Rainwise IP-100,2013-06-30 12:59:00,
2013-06-30 06:04:00,60.4,54.5,29.09,WSW,247,0.0,-999.0,82,0.00,,,0.00,Rainwise IP-100,2013-06-30 13:04:00,
2013-06-30 06:09:00,60.2,54.0,29.09,WSW,247,1.4,-999.0,81,0.00,,,0.00,Rainwise IP-100,2013-06-30 13:09:00,
2013-06-30 06:14:00,59.8,54.0,29.09,WSW,247,0.0,-999.0,81,0.00,,,0.00,Rainwise IP-100,2013-06-30 13:14:00,
2013-06-30 06:19:00,59.7,53.5,29.09,WSW,247,0.0,-999.0,81,0.00,,,0.00,Rainwise IP-100,2013-06-30 13:19:00,
2013-06-30 06:24:00,59.7,53.5,29.09,WSW,247,1.2,-999.0,81,0.00,,,0.00,Rainwise IP-100,2013-06-30 13:24:00,
2013-06-30 06:29:00,59.8,54.0,29.09,WSW,247,0.0,-999.0,81,0.00,,,0.00,Rainwise IP-100,2013-06-30 13:29:00,
2013-06-30 06:34:00,60.0,54.0,29.10,WSW,247,0.0,-999.0,81,0.00,,,0.00,Rainwise IP-100,2013-06-30 13:34:00,
2013-06-30 06:39:00,60.0,54.0,29.10,WSW,247,0.0,-999.0,81,0.00,,,0.00,Rainwise IP-100,2013-06-30 13:39:00,
2013-06-30 06:44:00,60.3,54.5,29.09,WSW,247,0.0,-999.0,81,0.00,,,0.00,Rainwise IP-100,2013-06-30 13:44:00,
2013-06-30 06:49:00,60.6,54.5,29.10,WSW,247,0.0,-999.0,81,0.00,,,0.00,Rainwise IP-100,2013-06-30 13:49:00,
2013-06-30 06:54:00,60.7,54.5,29.10,WSW,247,0.0,-999.0,81,0.00,,,0.00,Rainwise IP-100,2013-06-30 13:54:00,
2013-06-30 06:59:00,61.0,54.5,29.09,WSW,247,0.0,-999.0,80,0.00,,,0.00,Rainwise IP-100,2013-06-30 13:59:00,
2013-06-30 07:04:00,61.7,55.0,29.09,WSW,247,0.0,-999.0,80,0.00,,,0.00,Rainwise IP-100,2013-06-30 14:04:00,
2013-06-30 07:09:00,63.0,56.0,29.09,ESE,112,2.1,-999.0,78,0.00,,,0.00,Rainwise IP-100,2013-06-30 14:09:00,
2013-06-30 07:14:00,65.0,57.0,29.10,ESE,112,2.3,-999.0,76,0.00,,,0.00,Rainwise IP-100,2013-06-30 14:14:00,
2013-06-30 07:19:00,66.3,57.5,29.10,ESE,112,0.0,-999.0,74,0.00,,,0.00,Rainwise IP-100,2013-06-30 14:19:00,
2013-06-30 07:24:00,66.9,57.5,29.10,ESE,112,0.0,-999.0,72,0.00,,,0.00,Rainwise IP-100,2013-06-30 14:24:00,
2013-06-30 07:29:00,67.7,57.0,29.10,ESE,112,1.6,-999.0,69,0.00,,,0.00,Rainwise IP-100,2013-06-30 14:29:00,
2013-06-30 07:34:00,68.6,57.5,29.10,ESE,112,0.0,-999.0,69,0.00,,,0.00,Rainwise IP-100,2013-06-30 14:34:00,
2013-06-30 07:39:00,69.8,58.0,29.10,ESE,112,0.0,-999.0,67,0.00,,,0.00,Rainwise IP-100,2013-06-30 14:39:00,
2013-06-30 07:44:00,71.1,58.0,29.10,ESE,112,1.2,-999.0,64,0.00,,,0.00,Rainwise IP-100,2013-06-30 14:44:00,
2013-06-30 07:49:00,71.8,57.5,29.10,ESE,112,0.0,-999.0,61,0.00,,,0.00,Rainwise IP-100,2013-06-30 14:49:00,
2013-06-30 07:54:00,72.4,56.5,29.10,ESE,112,1.2,-999.0,58,0.00,,,0.00,Rainwise IP-100,2013-06-30 14:54:00,
2013-06-30 07:59:00,73.1,56.5,29.10,ESE,112,1.6,-999.0,56,0.00,,,0.00,Rainwise IP-100,2013-06-30 14:59:00,
2013-06-30 08:04:00,74.2,57.0,29.10,ESE,112,0.0,-999.0,55,0.00,,,0.00,Rainwise IP-100,2013-06-30 15:04:00,
2013-06-30 08:09:00,75.5,57.5,29.10,ESE,112,1.9,-999.0,54,0.00,,,0.00,Rainwise IP-100,2013-06-30 15:09:00,
2013-06-30 08:14:00,76.0,57.0,29.10,East,90,3.0,-999.0,52,0.00,,,0.00,Rainwise IP-100,2013-06-30 15:14:00,
2013-06-30 08:19:00,76.1,56.5,29.09,East,90,2.3,-999.0,51,0.00,,,0.00,Rainwise IP-100,2013-06-30 15:19:00,
2013-06-30 08:24:00,76.5,56.5,29.10,ESE,112,2.8,-999.0,50,0.00,,,0.00,Rainwise IP-100,2013-06-30 15:24:00,
2013-06-30 08:29:00,77.4,57.0,29.10,ESE,112,0.0,-999.0,49,0.00,,,0.00,Rainwise IP-100,2013-06-30 15:29:00,
2013-06-30 08:34:00,78.7,57.5,29.10,ESE,112,0.0,-999.0,48,0.00,,,0.00,Rainwise IP-100,2013-06-30 15:34:00,
2013-06-30 08:39:00,80.0,57.0,29.10,ESE,112,0.0,-999.0,46,0.00,,,0.00,Rainwise IP-100,2013-06-30 15:39:00,
2013-06-30 08:44:00,81.3,57.5,29.10,ESE,112,0.0,-999.0,44,0.00,,,0.00,Rainwise IP-100,2013-06-30 15:44:00,
2013-06-30 08:49:00,81.4,56.5,29.10,East,90,2.1,-999.0,43,0.00,,,0.00,Rainwise IP-100,2013-06-30 15:49:00,
2013-06-30 08:54:00,81.8,56.5,29.09,ESE,112,1.9,-999.0,42,0.00,,,0.00,Rainwise IP-100,2013-06-30 15:54:00,
2013-06-30 08:59:00,82.5,57.0,29.09,SSE,157,3.0,-999.0,42,0.00,,,0.00,Rainwise IP-100,2013-06-30 15:59:00,
2013-06-30 09:04:00,83.2,57.0,29.09,ESE,112,2.8,-999.0,41,0.00,,,0.00,Rainwise IP-100,2013-06-30 16:04:00,
2013-06-30 09:09:00,83.6,56.0,29.09,ENE,67,2.6,-999.0,39,0.00,,,0.00,Rainwise IP-100,2013-06-30 16:09:00,
2013-06-30 09:14:00,83.8,56.5,29.09,SSE,157,0.0,-999.0,39,0.00,,,0.00,Rainwise IP-100,2013-06-30 16:14:00,
2013-06-30 09:19:00,84.8,56.5,29.09,SE,135,1.9,-999.0,38,0.00,,,0.00,Rainwise IP-100,2013-06-30 16:19:00,
2013-06-30 09:24:00,85.7,56.5,29.09,ENE,67,3.0,-999.0,37,0.00,,,0.00,Rainwise IP-100,2013-06-30 16:24:00,
2013-06-30 09:29:00,85.9,56.0,29.09,SSE,157,1.2,-999.0,36,0.00,,,0.00,Rainwise IP-100,2013-06-30 16:29:00,
2013-06-30 09:34:00,86.9,56.0,29.09,SSE,157,1.9,-999.0,35,0.00,,,0.00,Rainwise IP-100,2013-06-30 16:34:00,
2013-06-30 09:39:00,88.3,56.5,29.08,East,90,3.3,-999.0,34,0.00,,,0.00,Rainwise IP-100,2013-06-30 16:39:00,
2013-06-30 09:44:00,88.8,56.0,29.08,South,180,0.0,-999.0,33,0.00,,,0.00,Rainwise IP-100,2013-06-30 16:44:00,
2013-06-30 09:49:00,89.4,56.5,29.09,SSE,157,3.0,-999.0,33,0.00,,,0.00,Rainwise IP-100,2013-06-30 16:49:00,
2013-06-30 09:54:00,90.6,56.5,29.08,SSE,157,2.1,-999.0,32,0.00,,,0.00,Rainwise IP-100,2013-06-30 16:54:00,
2013-06-30 09:59:00,91.8,57.0,29.08,SSE,157,1.9,-999.0,31,0.00,,,0.00,Rainwise IP-100,2013-06-30 16:59:00,
2013-06-30 10:04:00,92.9,57.5,29.08,SE,135,1.9,-999.0,31,0.00,,,0.00,Rainwise IP-100,2013-06-30 17:04:00,
2013-06-30 10:09:00,92.9,57.0,29.08,ESE,112,2.1,-999.0,30,0.00,,,0.00,Rainwise IP-100,2013-06-30 17:09:00,
2013-06-30 10:14:00,92.4,56.5,29.08,East,90,2.8,-999.0,30,0.00,,,0.00,Rainwise IP-100,2013-06-30 17:14:00,
2013-06-30 10:19:00,92.8,57.0,29.08,ENE,67,3.7,-999.0,30,0.00,,,0.00,Rainwise IP-100,2013-06-30 17:19:00,
2013-06-30 10:24:00,93.2,56.5,29.08,East,90,3.7,-999.0,29,0.00,,,0.00,Rainwise IP-100,2013-06-30 17:24:00,
2013-06-30 10:29:00,93.8,56.5,29.08,ESE,112,0.0,-999.0,29,0.00,,,0.00,Rainwise IP-100,2013-06-30 17:29:00,
2013-06-30 10:34:00,94.5,56.5,29.07,SSE,157,1.9,-999.0,28,0.00,,,0.00,Rainwise IP-100,2013-06-30 17:34:00,
2013-06-30 10:39:00,95.4,56.0,29.08,NNE,22,0.0,-999.0,27,0.00,,,0.00,Rainwise IP-100,2013-06-30 17:39:00,
2013-06-30 10:44:00,96.6,56.5,29.08,East,90,5.1,-999.0,26,0.00,,,0.00,Rainwise IP-100,2013-06-30 17:44:00,
2013-06-30 10:49:00,97.4,56.0,29.07,NNE,22,0.0,-999.0,25,0.00,,,0.00,Rainwise IP-100,2013-06-30 17:49:00,
2013-06-30 10:54:00,98.1,56.5,29.07,SSW,202,0.0,-999.0,25,0.00,,,0.00,Rainwise IP-100,2013-06-30 17:54:00,
2013-06-30 10:59:00,98.4,55.0,29.08,SSE,157,3.3,-999.0,24,0.00,,,0.00,Rainwise IP-100,2013-06-30 17:59:00,
2013-06-30 11:04:00,98.5,55.0,29.07,ESE,112,3.0,-999.0,24,0.00,,,0.00,Rainwise IP-100,2013-06-30 18:04:00,
2013-06-30 11:09:00,98.4,54.0,29.07,South,180,3.0,-999.0,23,0.00,,,0.00,Rainwise IP-100,2013-06-30 18:09:00,
2013-06-30 11:14:00,98.1,54.0,29.07,ESE,112,5.6,-999.0,23,0.00,,,0.00,Rainwise IP-100,2013-06-30 18:14:00,
2013-06-30 11:19:00,98.7,56.0,29.07,SSW,202,6.1,-999.0,24,0.00,,,0.00,Rainwise IP-100,2013-06-30 18:19:00,
2013-06-30 11:24:00,99.1,54.5,29.07,ESE,112,1.6,-999.0,23,0.00,,,0.00,Rainwise IP-100,2013-06-30 18:24:00,
2013-06-30 11:29:00,99.4,55.0,29.06,SSW,202,3.3,-999.0,23,0.00,,,0.00,Rainwise IP-100,2013-06-30 18:29:00,
2013-06-30 11:34:00,100.0,55.0,29.07,SSE,157,2.8,-999.0,23,0.00,,,0.00,Rainwise IP-100,2013-06-30 18:34:00,
2013-06-30 11:39:00,100.0,55.0,29.06,SSE,157,3.3,-999.0,23,0.00,,,0.00,Rainwise IP-100,2013-06-30 18:39:00,
2013-06-30 11:44:00,99.8,54.0,29.06,NNE,22,2.3,-999.0,22,0.00,,,0.00,Rainwise IP-100,2013-06-30 18:44:00,
2013-06-30 11:49:00,99.6,54.0,29.06,ESE,112,2.1,-999.0,22,0.00,,,0.00,Rainwise IP-100,2013-06-30 18:49:00,
2013-06-30 11:54:00,99.5,54.0,29.06,ENE,67,1.9,-999.0,22,0.00,,,0.00,Rainwise IP-100,2013-06-30 18:54:00,
2013-06-30 11:59:00,99.8,54.0,29.06,SSW,202,2.8,-999.0,22,0.00,,,0.00,Rainwise IP-100,2013-06-30 18:59:00,
2013-06-30 12:04:00,100.3,54.5,29.06,ENE,67,5.8,-999.0,22,0.00,,,0.00,Rainwise IP-100,2013-06-30 19:04:00,
2013-06-30 12:09:00,100.8,55.0,29.06,SSE,157,9.1,-999.0,22,0.00,,,0.00,Rainwise IP-100,2013-06-30 19:09:00,
2013-06-30 12:14:00,101.0,56.5,29.06,WSW,247,4.4,-999.0,23,0.00,,,0.00,Rainwise IP-100,2013-06-30 19:14:00,
2013-06-30 12:19:00,101.3,56.5,29.06,SSE,157,3.5,-999.0,23,0.00,,,0.00,Rainwise IP-100,2013-06-30 19:19:00,
2013-06-30 12:24:00,101.5,56.5,29.06,SSE,157,7.7,-999.0,23,0.00,,,0.00,Rainwise IP-100,2013-06-30 19:24:00,
2013-06-30 12:29:00,101.2,56.5,29.06,SW,225,4.0,-999.0,23,0.00,,,0.00,Rainwise IP-100,2013-06-30 19:29:00,
2013-06-30 12:34:00,101.4,56.5,29.06,SSE,157,7.0,-999.0,23,0.00,,,0.00,Rainwise IP-100,2013-06-30 19:34:00,
2013-06-30 12:39:00,101.4,56.5,29.06,SSE,157,5.4,-999.0,23,0.00,,,0.00,Rainwise IP-100,2013-06-30 19:39:00,
2013-06-30 12:44:00,101.1,56.5,29.06,SSW,202,6.1,-999.0,23,0.00,,,0.00,Rainwise IP-100,2013-06-30 19:44:00,
2013-06-30 12:49:00,101.5,55.0,29.06,WSW,247,2.8,-999.0,22,0.00,,,0.00,Rainwise IP-100,2013-06-30 19:49:00,
2013-06-30 12:54:00,102.1,56.0,29.06,SSE,157,7.9,-999.0,22,0.00,,,0.00,Rainwise IP-100,2013-06-30 19:54:00,
2013-06-30 12:59:00,102.0,57.0,29.05,WSW,247,4.2,-999.0,23,0.00,,,0.00,Rainwise IP-100,2013-06-30 19:59:00,
2013-06-30 13:04:00,102.1,56.0,29.05,SSE,157,2.6,-999.0,22,0.00,,,0.00,Rainwise IP-100,2013-06-30 20:04:00,
2013-06-30 13:09:00,102.1,54.5,29.06,SSE,157,2.8,-999.0,21,0.00,,,0.00,Rainwise IP-100,2013-06-30 20:09:00,
2013-06-30 13:14:00,101.9,56.0,29.06,SSE,157,3.3,-999.0,22,0.00,,,0.00,Rainwise IP-100,2013-06-30 20:14:00,
2013-06-30 13:19:00,101.7,56.0,29.05,SSE,157,8.2,-999.0,22,0.00,,,0.00,Rainwise IP-100,2013-06-30 20:19:00,
2013-06-30 13:24:00,101.6,56.0,29.05,NW,315,0.0,-999.0,22,0.00,,,0.00,Rainwise IP-100,2013-06-30 20:24:00,
2013-06-30 13:29:00,101.8,56.0,29.05,SSE,157,4.7,-999.0,22,0.00,,,0.00,Rainwise IP-100,2013-06-30 20:29:00,
2013-06-30 13:34:00,102.2,54.5,29.05,ESE,112,6.8,-999.0,21,0.00,,,0.00,Rainwise IP-100,2013-06-30 20:34:00,
2013-06-30 13:38:00,102.0,56.0,29.05,SSW,202,7.5,-999.0,22,0.00,,,0.00,Rainwise IP-100,2013-06-30 20:38:00,
2013-06-30 13:43:00,101.6,57.0,29.05,SSE,157,7.5,-999.0,23,0.00,,,0.00,Rainwise IP-100,2013-06-30 20:43:00,
2013-06-30 13:48:00,101.4,56.5,29.05,ESE,112,6.5,-999.0,23,0.00,,,0.00,Rainwise IP-100,2013-06-30 20:48:00,
2013-06-30 13:53:00,101.7,57.0,29.05,SW,225,2.1,-999.0,23,0.00,,,0.00,Rainwise IP-100,2013-06-30 20:53:00,
2013-06-30 13:58:00,102.5,56.5,29.05,SW,225,3.3,-999.0,22,0.00,,,0.00,Rainwise IP-100,2013-06-30 20:58:00,
2013-06-30 14:03:00,103.1,56.0,29.05,WSW,247,2.3,-999.0,21,0.00,,,0.00,Rainwise IP-100,2013-06-30 21:03:00,
2013-06-30 14:08:00,103.4,54.5,29.05,SW,225,6.3,-999.0,20,0.00,,,0.00,Rainwise IP-100,2013-06-30 21:08:00,
2013-06-30 14:13:00,103.7,53.5,29.05,SSW,202,9.1,-999.0,19,0.00,,,0.00,Rainwise IP-100,2013-06-30 21:13:00,
2013-06-30 14:18:00,103.6,53.5,29.05,SSW,202,4.9,-999.0,19,0.00,,,0.00,Rainwise IP-100,2013-06-30 21:18:00,
2013-06-30 14:23:00,103.7,54.5,29.04,WNW,292,2.8,-999.0,20,0.00,,,0.00,Rainwise IP-100,2013-06-30 21:23:00,
2013-06-30 14:28:00,103.8,54.5,29.05,SSE,157,3.0,-999.0,20,0.00,,,0.00,Rainwise IP-100,2013-06-30 21:28:00,
2013-06-30 14:33:00,103.9,54.5,29.04,WNW,292,2.6,-999.0,20,0.00,,,0.00,Rainwise IP-100,2013-06-30 21:33:00,
2013-06-30 14:38:00,104.0,53.5,29.04,WSW,247,4.2,-999.0,19,0.00,,,0.00,Rainwise IP-100,2013-06-30 21:38:00,
2013-06-30 14:43:00,104.0,53.5,29.05,WSW,247,1.6,-999.0,19,0.00,,,0.00,Rainwise IP-100,2013-06-30 21:43:00,
2013-06-30 14:48:00,103.8,52.0,29.04,SSW,202,4.9,-999.0,18,0.00,,,0.00,Rainwise IP-100,2013-06-30 21:48:00,
2013-06-30 14:53:00,103.5,52.0,29.04,WSW,247,0.0,-999.0,18,0.00,,,0.00,Rainwise IP-100,2013-06-30 21:53:00,
2013-06-30 14:58:00,103.6,53.5,29.04,West,270,4.7,-999.0,19,0.00,,,0.00,Rainwise IP-100,2013-06-30 21:58:00,
2013-06-30 15:03:00,104.1,52.0,29.04,SSW,202,4.7,-999.0,18,0.00,,,0.00,Rainwise IP-100,2013-06-30 22:03:00,
2013-06-30 15:08:00,103.9,53.5,29.04,WSW,247,10.3,-999.0,19,0.00,,,0.00,Rainwise IP-100,2013-06-30 22:08:00,
2013-06-30 15:13:00,103.4,53.5,29.04,SSW,202,5.6,-999.0,19,0.00,,,0.00,Rainwise IP-100,2013-06-30 22:13:00,
2013-06-30 15:18:00,103.3,53.0,29.04,SW,225,3.0,-999.0,19,0.00,,,0.00,Rainwise IP-100,2013-06-30 22:18:00,
2013-06-30 15:23:00,103.6,53.5,29.04,SSW,202,6.3,-999.0,19,0.00,,,0.00,Rainwise IP-100,2013-06-30 22:23:00,
2013-06-30 15:28:00,103.9,53.5,29.04,SSW,202,9.6,-999.0,19,0.00,,,0.00,Rainwise IP-100,2013-06-30 22:28:00,
2013-06-30 15:33:00,103.7,53.5,29.04,WSW,247,4.7,-999.0,19,0.00,,,0.00,Rainwise IP-100,2013-06-30 22:33:00,
2013-06-30 15:38:00,103.7,53.5,29.03,WSW,247,4.4,-999.0,19,0.00,,,0.00,Rainwise IP-100,2013-06-30 22:38:00,
2013-06-30 15:43:00,103.9,53.5,29.04,South,180,4.9,-999.0,19,0.00,,,0.00,Rainwise IP-100,2013-06-30 22:43:00,
2013-06-30 15:48:00,104.1,52.0,29.03,SSW,202,3.0,-999.0,18,0.00,,,0.00,Rainwise IP-100,2013-06-30 22:48:00,
2013-06-30 15:53:00,104.2,54.0,29.03,SW,225,6.1,-999.0,19,0.00,,,0.00,Rainwise IP-100,2013-06-30 22:53:00,
2013-06-30 15:58:00,104.1,52.0,29.03,SSW,202,6.5,-999.0,18,0.00,,,0.00,Rainwise IP-100,2013-06-30 22:58:00,
2013-06-30 16:03:00,104.1,52.0,29.03,SSW,202,7.7,-999.0,18,0.00,,,0.00,Rainwise IP-100,2013-06-30 23:03:00,
2013-06-30 16:08:00,103.9,52.0,29.03,SSW,202,4.9,-999.0,18,0.00,,,0.00,Rainwise IP-100,2013-06-30 23:08:00,
2013-06-30 16:13:00,103.7,53.5,29.03,WSW,247,0.0,-999.0,19,0.00,,,0.00,Rainwise IP-100,2013-06-30 23:13:00,
2013-06-30 16:18:00,104.2,55.0,29.02,SSW,202,1.4,-999.0,20,0.00,,,0.00,Rainwise IP-100,2013-06-30 23:18:00,
2013-06-30 16:23:00,104.4,54.0,29.02,SW,225,7.5,-999.0,19,0.00,,,0.00,Rainwise IP-100,2013-06-30 23:23:00,
2013-06-30 16:28:00,104.1,54.0,29.02,WSW,247,2.8,-999.0,19,0.00,,,0.00,Rainwise IP-100,2013-06-30 23:28:00,
2013-06-30 16:33:00,103.9,53.5,29.02,WSW,247,11.0,-999.0,19,0.00,,,0.00,Rainwise IP-100,2013-06-30 23:33:00,
2013-06-30 16:38:00,103.7,53.5,29.02,SSW,202,6.3,-999.0,19,0.00,,,0.00,Rainwise IP-100,2013-06-30 23:38:00,
2013-06-30 16:43:00,103.3,51.0,29.02,SSW,202,2.1,-999.0,18,0.00,,,0.00,Rainwise IP-100,2013-06-30 23:43:00,
2013-06-30 16:48:00,103.4,52.0,29.02,SSW,202,4.7,-999.0,18,0.00,,,0.00,Rainwise IP-100,2013-06-30 23:48:00,
2013-06-30 16:53:00,103.4,52.0,29.01,SSW,202,3.7,-999.0,18,0.00,,,0.00,Rainwise IP-100,2013-06-30 23:53:00,
2013-06-30 16:58:00,103.3,53.0,29.02,SSW,202,5.8,-999.0,19,0.00,,,0.00,Rainwise IP-100,2013-06-30 23:58:00,
2013-06-30 17:03:00,103.2,53.0,29.02,WNW,292,2.1,-999.0,19,0.00,,,0.00,Rainwise IP-100,2013-07-01 00:03:00,
2013-06-30 17:08:00,103.0,53.0,29.01,SSW,202,4.2,-999.0,19,0.00,,,0.00,Rainwise IP-100,2013-07-01 00:08:00,
2013-06-30 17:13:00,103.1,53.0,29.02,SSW,202,4.4,-999.0,19,0.00,,,0.00,Rainwise IP-100,2013-07-01 00:13:00,
2013-06-30 17:18:00,103.2,53.0,29.01,WSW,247,4.9,-999.0,19,0.00,,,0.00,Rainwise IP-100,2013-07-01 00:18:00,
2013-06-30 17:23:00,103.1,53.0,29.01,SSW,202,9.3,-999.0,19,0.00,,,0.00,Rainwise IP-100,2013-07-01 00:23:00,
2013-06-30 17:28:00,102.8,53.0,29.01,WSW,247,3.5,-999.0,19,0.00,,,0.00,Rainwise IP-100,2013-07-01 00:28:00,
2013-06-30 17:33:00,102.6,54.0,29.01,SW,225,2.1,-999.0,20,0.00,,,0.00,Rainwise IP-100,2013-07-01 00:33:00,
2013-06-30 17:38:00,102.6,54.0,29.01,SW,225,8.4,-999.0,20,0.00,,,0.00,Rainwise IP-100,2013-07-01 00:38:00,
2013-06-30 17:43:00,102.4,53.5,29.01,WSW,247,4.4,-999.0,20,0.00,,,0.00,Rainwise IP-100,2013-07-01 00:43:00,
2013-06-30 17:48:00,102.3,53.5,29.01,SW,225,4.2,-999.0,20,0.00,,,0.00,Rainwise IP-100,2013-07-01 00:48:00,
2013-06-30 17:53:00,101.9,54.5,29.00,WSW,247,7.2,-999.0,21,0.00,,,0.00,Rainwise IP-100,2013-07-01 00:53:00,
2013-06-30 17:58:00,101.5,54.0,29.00,SSW,202,4.7,-999.0,21,0.00,,,0.00,Rainwise IP-100,2013-07-01 00:58:00,
2013-06-30 18:03:00,101.3,54.0,29.01,SSW,202,5.6,-999.0,21,0.00,,,0.00,Rainwise IP-100,2013-07-01 01:03:00,
2013-06-30 18:08:00,101.0,54.0,29.00,WSW,247,2.8,-999.0,21,0.00,,,0.00,Rainwise IP-100,2013-07-01 01:08:00,
2013-06-30 18:13:00,100.9,55.0,29.00,SW,225,4.2,-999.0,22,0.00,,,0.00,Rainwise IP-100,2013-07-01 01:13:00,
2013-06-30 18:18:00,100.8,54.0,29.00,SSW,202,2.8,-999.0,21,0.00,,,0.00,Rainwise IP-100,2013-07-01 01:18:00,
2013-06-30 18:23:00,100.6,54.5,29.00,SSW,202,1.2,-999.0,22,0.00,,,0.00,Rainwise IP-100,2013-07-01 01:23:00,
2013-06-30 18:28:00,100.6,54.5,29.01,SSW,202,5.4,-999.0,22,0.00,,,0.00,Rainwise IP-100,2013-07-01 01:28:00,
2013-06-30 18:33:00,100.4,54.5,29.00,SSW,202,6.5,-999.0,22,0.00,,,0.00,Rainwise IP-100,2013-07-01 01:33:00,
2013-06-30 18:38:00,100.0,54.0,29.00,SSW,202,5.6,-999.0,22,0.00,,,0.00,Rainwise IP-100,2013-07-01 01:38:00,
2013-06-30 18:43:00,99.6,55.0,29.00,SSW,202,5.6,-999.0,23,0.00,,,0.00,Rainwise IP-100,2013-07-01 01:43:00,
2013-06-30 18:48:00,99.5,56.5,29.00,WSW,247,2.8,-999.0,24,0.00,,,0.00,Rainwise IP-100,2013-07-01 01:48:00,
2013-06-30 18:53:00,99.2,56.0,29.00,WSW,247,4.7,-999.0,24,0.00,,,0.00,Rainwise IP-100,2013-07-01 01:53:00,
2013-06-30 18:58:00,98.9,57.0,29.00,SSW,202,6.3,-999.0,25,0.00,,,0.00,Rainwise IP-100,2013-07-01 01:58:00,
2013-06-30 19:03:00,98.6,57.0,29.00,WSW,247,5.4,-999.0,25,0.00,,,0.00,Rainwise IP-100,2013-07-01 02:03:00,
2013-06-30 19:08:00,98.3,57.5,29.00,South,180,4.0,-999.0,26,0.00,,,0.00,Rainwise IP-100,2013-07-01 02:08:00,
2013-06-30 19:13:00,97.9,57.0,29.00,WSW,247,1.6,-999.0,26,0.00,,,0.00,Rainwise IP-100,2013-07-01 02:13:00,
2013-06-30 19:18:00,97.5,58.0,29.00,WSW,247,0.0,-999.0,27,0.00,,,0.00,Rainwise IP-100,2013-07-01 02:18:00,
2013-06-30 19:23:00,97.1,59.0,29.00,WSW,247,1.2,-999.0,28,0.00,,,0.00,Rainwise IP-100,2013-07-01 02:23:00,
2013-06-30 19:28:00,96.3,59.0,29.00,WSW,247,0.0,-999.0,29,0.00,,,0.00,Rainwise IP-100,2013-07-01 02:28:00,
2013-06-30 19:33:00,95.4,59.0,29.00,WSW,247,0.0,-999.0,30,0.00,,,0.00,Rainwise IP-100,2013-07-01 02:33:00,
2013-06-30 19:38:00,94.5,59.5,29.00,WSW,247,0.0,-999.0,31,0.00,,,0.00,Rainwise IP-100,2013-07-01 02:38:00,
2013-06-30 19:43:00,93.6,59.5,29.00,WSW,247,0.0,-999.0,32,0.00,,,0.00,Rainwise IP-100,2013-07-01 02:43:00,
2013-06-30 19:48:00,92.5,60.0,29.00,WSW,247,0.0,-999.0,34,0.00,,,0.00,Rainwise IP-100,2013-07-01 02:48:00,
2013-06-30 19:53:00,91.3,60.0,29.00,WSW,247,0.0,-999.0,35,0.00,,,0.00,Rainwise IP-100,2013-07-01 02:53:00,
2013-06-30 19:58:00,90.0,59.5,29.00,WSW,247,0.0,-999.0,36,0.00,,,0.00,Rainwise IP-100,2013-07-01 02:58:00,
2013-06-30 20:03:00,88.9,60.0,29.01,WSW,247,0.0,-999.0,38,0.00,,,0.00,Rainwise IP-100,2013-07-01 03:03:00,
2013-06-30 20:08:00,87.9,61.0,29.01,WSW,247,0.0,-999.0,40,0.00,,,0.00,Rainwise IP-100,2013-07-01 03:08:00,
2013-06-30 20:13:00,86.8,60.0,29.01,WSW,247,1.6,-999.0,41,0.00,,,0.00,Rainwise IP-100,2013-07-01 03:13:00,
2013-06-30 20:18:00,85.7,60.0,29.01,WSW,247,1.6,-999.0,42,0.00,,,0.00,Rainwise IP-100,2013-07-01 03:18:00,
2013-06-30 20:23:00,84.8,60.0,29.01,WSW,247,0.0,-999.0,43,0.00,,,0.00,Rainwise IP-100,2013-07-01 03:23:00,
2013-06-30 20:28:00,84.3,60.0,29.01,WNW,292,0.0,-999.0,44,0.00,,,0.00,Rainwise IP-100,2013-07-01 03:28:00,
2013-06-30 20:33:00,83.8,59.5,29.01,WSW,247,1.9,-999.0,44,0.00,,,0.00,Rainwise IP-100,2013-07-01 03:33:00,
2013-06-30 20:38:00,83.1,60.0,29.01,WSW,247,2.3,-999.0,46,0.00,,,0.00,Rainwise IP-100,2013-07-01 03:38:00,
2013-06-30 20:43:00,82.3,60.0,29.01,WSW,247,1.4,-999.0,47,0.00,,,0.00,Rainwise IP-100,2013-07-01 03:43:00,
2013-06-30 20:48:00,82.0,59.5,29.01,WSW,247,2.3,-999.0,46,0.00,,,0.00,Rainwise IP-100,2013-07-01 03:48:00,
2013-06-30 20:53:00,82.2,58.0,29.02,WSW,247,0.0,-999.0,44,0.00,,,0.00,Rainwise IP-100,2013-07-01 03:53:00,
2013-06-30 20:58:00,82.1,57.5,29.01,WNW,292,2.1,-999.0,44,0.00,,,0.00,Rainwise IP-100,2013-07-01 03:58:00,
2013-06-30 21:01:00,81.8,58.0,29.02,WNW,292,1.6,-999.0,45,0.00,,,0.00,Rainwise IP-100,2013-07-01 04:01:00,
2013-06-30 21:06:00,81.0,58.0,29.02,WNW,292,0.0,-999.0,46,0.00,,,0.00,Rainwise IP-100,2013-07-01 04:06:00,
2013-06-30 21:11:00,80.2,59.0,29.02,WSW,247,2.6,-999.0,48,0.00,,,0.00,Rainwise IP-100,2013-07-01 04:11:00,
2013-06-30 21:16:00,79.6,59.5,29.02,WSW,247,0.0,-999.0,50,0.00,,,0.00,Rainwise IP-100,2013-07-01 04:16:00,
2013-06-30 21:21:00,79.0,59.0,29.02,WSW,247,2.3,-999.0,50,0.00,,,0.00,Rainwise IP-100,2013-07-01 04:21:00,
2013-06-30 21:26:00,78.5,59.0,29.02,WSW,247,0.0,-999.0,51,0.00,,,0.00,Rainwise IP-100,2013-07-01 04:26:00,
2013-06-30 21:31:00,78.1,58.0,29.02,WSW,247,1.4,-999.0,51,0.00,,,0.00,Rainwise IP-100,2013-07-01 04:31:00,
2013-06-30 21:36:00,77.8,57.5,29.03,WSW,247,0.0,-999.0,50,0.00,,,0.00,Rainwise IP-100,2013-07-01 04:36:00,
2013-06-30 21:41:00,77.3,57.5,29.02,WSW,247,1.2,-999.0,50,0.00,,,0.00,Rainwise IP-100,2013-07-01 04:41:00,
2013-06-30 21:46:00,76.7,57.0,29.03,WSW,247,0.0,-999.0,51,0.00,,,0.00,Rainwise IP-100,2013-07-01 04:46:00,
2013-06-30 21:51:00,76.2,57.5,29.03,WSW,247,1.4,-999.0,53,0.00,,,0.00,Rainwise IP-100,2013-07-01 04:51:00,
2013-06-30 21:56:00,75.8,58.0,29.03,WSW,247,2.6,-999.0,54,0.00,,,0.00,Rainwise IP-100,2013-07-01 04:56:00,
2013-06-30 22:01:00,75.3,58.0,29.03,WSW,247,0.0,-999.0,55,0.00,,,0.00,Rainwise IP-100,2013-07-01 05:01:00,
2013-06-30 22:06:00,75.0,57.5,29.04,WSW,247,1.9,-999.0,55,0.00,,,0.00,Rainwise IP-100,2013-07-01 05:06:00,
2013-06-30 22:11:00,74.7,58.0,29.04,WSW,247,1.6,-999.0,56,0.00,,,0.00,Rainwise IP-100,2013-07-01 05:11:00,
2013-06-30 22:16:00,74.5,57.5,29.04,WSW,247,1.2,-999.0,55,0.00,,,0.00,Rainwise IP-100,2013-07-01 05:16:00,
2013-06-30 22:21:00,74.2,57.0,29.04,WSW,247,1.2,-999.0,55,0.00,,,0.00,Rainwise IP-100,2013-07-01 05:21:00,
2013-06-30 22:26:00,73.8,56.5,29.04,WSW,247,0.0,-999.0,55,0.00,,,0.00,Rainwise IP-100,2013-07-01 05:26:00,
2013-06-30 22:31:00,73.7,56.0,29.04,WSW,247,0.0,-999.0,54,0.00,,,0.00,Rainwise IP-100,2013-07-01 05:31:00,
2013-06-30 22:36:00,73.5,56.5,29.04,WSW,247,2.3,-999.0,55,0.00,,,0.00,Rainwise IP-100,2013-07-01 05:36:00,
2013-06-30 22:41:00,73.1,56.0,29.05,WSW,247,0.0,-999.0,55,0.00,,,0.00,Rainwise IP-100,2013-07-01 05:41:00,
2013-06-30 22:46:00,72.8,56.0,29.04,WSW,247,0.0,-999.0,55,0.00,,,0.00,Rainwise IP-100,2013-07-01 05:46:00,
2013-06-30 22:51:00,72.6,56.0,29.05,WSW,247,0.0,-999.0,56,0.00,,,0.00,Rainwise IP-100,2013-07-01 05:51:00,
2013-06-30 22:56:00,71.9,56.0,29.05,WSW,247,0.0,-999.0,57,0.00,,,0.00,Rainwise IP-100,2013-07-01 05:56:00,
2013-06-30 23:01:00,71.2,56.0,29.05,WSW,247,1.6,-999.0,58,0.00,,,0.00,Rainwise IP-100,2013-07-01 06:01:00,
2013-06-30 23:06:00,70.8,56.0,29.05,WSW,247,0.0,-999.0,59,0.00,,,0.00,Rainwise IP-100,2013-07-01 06:06:00,
2013-06-30 23:11:00,70.7,55.0,29.05,WSW,247,0.0,-999.0,59,0.00,,,0.00,Rainwise IP-100,2013-07-01 06:11:00,
2013-06-30 23:16:00,70.5,55.0,29.04,WSW,247,0.0,-999.0,59,0.00,,,0.00,Rainwise IP-100,2013-07-01 06:16:00,
2013-06-30 23:21:00,70.1,55.0,29.05,WSW,247,1.4,-999.0,60,0.00,,,0.00,Rainwise IP-100,2013-07-01 06:21:00,
2013-06-30 23:26:00,69.8,55.0,29.05,WSW,247,0.0,-999.0,60,0.00,,,0.00,Rainwise IP-100,2013-07-01 06:26:00,
2013-06-30 23:31:00,69.6,54.5,29.05,WSW,247,0.0,-999.0,59,0.00,,,0.00,Rainwise IP-100,2013-07-01 06:31:00,
2013-06-30 23:36:00,69.4,54.0,29.05,WSW,247,0.0,-999.0,59,0.00,,,0.00,Rainwise IP-100,2013-07-01 06:36:00,
2013-06-30 23:41:00,68.9,54.5,29.05,WSW,247,0.0,-999.0,60,0.00,,,0.00,Rainwise IP-100,2013-07-01 06:41:00,
2013-06-30 23:46:00,68.5,55.0,29.05,WSW,247,0.0,-999.0,63,0.00,,,0.00,Rainwise IP-100,2013-07-01 06:46:00,
2013-06-30 23:51:00,68.2,54.5,29.05,WSW,247,1.2,-999.0,62,0.00,,,0.00,Rainwise IP-100,2013-07-01 06:51:00,
2013-06-30 23:56:00,68.0,54.0,29.05,WSW,247,0.0,-999.0,61,0.00,,,0.00,Rainwise IP-100,2013-07-01 06:56:00,